Terminal Aerodrome Forecast
Issued by NWS

Current Version | Previous Version | Graphics & Text | Print | Product List | Glossary On
Versions: 1 2 3 4 5 6 7 8 9 10 11 12 13 14 15 16 17 18 19 20 21 22
000
FTUS41 KPBZ 011100
TAFHLG
TAF
KHLG 011129Z 0112/0212 VRB02KT 3SM BR OVC008
     FM011400 07005KT 6SM BR BKN015
     FM011600 11005KT P6SM BKN035
     FM012100 19005KT P6SM BKN250=

USA.gov is the U.S. government's official web portal to all federal, state and local government web resources and services.